Location: Newark
(42.8481°N, 0.4872°E)
Time: 08:22:16
(UTC+00:00)

SR - Pass Details

Date: 06 November 2020
Orbit: 579 x 876 km, 66.7° (Epoch: 29 November)

Event Time Altitude Azimuth Distance (km) Brightness Sun altitude
Rises 08:45:07 0° 329° (NNW) 3,103 ? 18.4°
Reaches altitude 10° 08:47:23 10° 329° (NNW) 2,226 ? 18.7°
Maximum altitude 08:52:30 90° 261° (W) 779 ? 19.4°
Drops below altitude 10° 08:58:03 10° 151° (SSE) 2,405 ? 20.0°
Sets 09:00:35 0° 151° (SSE) 3,370 ? 20.4°
